Tampa, FL

5:02 PM EDT on March 26, 2017 (GMT -0400)
Tampa International

Weather History for KTPA - September, 2013

Change the Weather History Date:

Monday, September 9, 2013

  Actual Average Record
Temperature  
Mean Temperature 85 °F 82 °F  
Max Temperature 94 °F 90 °F 95 °F (1948)
Min Temperature 75 °F 75 °F 67 °F (1972)
Degree Days  
Heating Degree Days 0 0  
Month to date heating degree days 0 0  
Since 1 July heating degree days 0 0  
Cooling Degree Days 20 17  
Month to date cooling degree days 167 161  
Year to date cooling degree days 2804 2676  
Growing Degree Days 34 (Base 50)    
Moisture  
Dew Point 69 °F    
Average Humidity 63    
Maximum Humidity 87    
Minimum Humidity 39    
Precipitation  
Precipitation 0.00 in 0.23 in 2.13 in (1912)
Month to date precipitation 0.81 2.24  
Year to date precipitation 43.33 35.96  
Sea Level Pressure  
Sea Level Pressure 29.99 in    
Wind  
Wind Speed 5 mph (NE)    
Max Wind Speed 10 mph    
Max Gust Speed 17 mph    
Visibility 10 miles    
Events      
T = Trace of Precipitation, MM = Missing Value Source: NWS Daily Summary

Daily Weather History Graph

Daily Weather History Graph

Search for Another Location

Airport or City:

Trip Planner

Search our weather history database for the weather conditions in past years. The results will help you decide how hot, cold, wet, or windy it might be!

Date:

Astronomy

Sep. 09, 2013 Rise Set
Actual Time 7:12 AM EDT 7:41 PM EDT
Civil Twilight 6:49 AM EDT 8:05 PM EDT
Nautical Twilight 6:21 AM EDT 8:32 PM EDT
Astronomical Twilight 5:53 AM EDT 9:00 PM EDT
Moon 11:06 AM EDT (9/9) 10:24 PM EDT (9/9)
Length of Visible Light 13h 16m
Length of Day
12h 28m
Waxing Crescent, 19% of the Moon is Illuminated
Sep 9
Waxing Crescent
Sep 12
First Quarter
Sep 19
Full
Sep 26
Last Quarter
Oct 4
New

Hourly Weather History & Observations

Time (EDT) Temp. Heat Index Dew Point Humidity Pressure Visibility Wind Dir Wind Speed Gust Speed Precip Events Conditions
12:53 AM 80.1 °F 83.8 °F 72.0 °F 76% 29.98 in 10.0 mi Calm Calm - N/A   Partly Cloudy
1:53 AM 79.0 °F - 72.0 °F 79% 29.97 in 10.0 mi ENE 4.6 mph - N/A   Clear
2:53 AM 78.1 °F - 72.0 °F 81% 29.96 in 10.0 mi Calm Calm - N/A   Clear
3:53 AM 77.0 °F - 72.0 °F 84% 29.95 in 10.0 mi NNE 3.5 mph - N/A   Clear
4:53 AM 77.0 °F - 72.0 °F 84% 29.95 in 10.0 mi ENE 4.6 mph - N/A   Clear
5:53 AM 75.9 °F - 71.1 °F 85% 29.97 in 10.0 mi NNE 4.6 mph - N/A   Partly Cloudy
6:53 AM 75.9 °F - 71.1 °F 85% 29.98 in 10.0 mi Calm Calm - N/A   Scattered Clouds
7:53 AM 75.9 °F - 72.0 °F 87% 30.00 in 10.0 mi NNE 4.6 mph - N/A   Partly Cloudy
8:53 AM 80.1 °F 83.8 °F 72.0 °F 76% 30.01 in 10.0 mi Variable 6.9 mph - N/A   Clear
9:53 AM 82.0 °F 86.7 °F 72.0 °F 71% 30.02 in 10.0 mi ENE 8.1 mph - N/A   Partly Cloudy
10:53 AM 86.0 °F 91.5 °F 71.1 °F 61% 30.03 in 10.0 mi Variable 4.6 mph - N/A   Partly Cloudy
11:53 AM 87.1 °F 92.0 °F 70.0 °F 57% 30.03 in 10.0 mi NE 6.9 mph - N/A   Scattered Clouds
12:53 PM 89.1 °F 92.1 °F 66.9 °F 48% 30.02 in 10.0 mi Variable 6.9 mph - N/A   Scattered Clouds
1:53 PM 90.0 °F 92.8 °F 66.9 °F 46% 30.01 in 10.0 mi Variable 4.6 mph - N/A   Scattered Clouds
2:53 PM 91.9 °F 95.4 °F 66.9 °F 44% 29.98 in 10.0 mi Calm Calm - N/A   Scattered Clouds
3:53 PM 91.0 °F 93.0 °F 64.9 °F 42% 29.97 in 10.0 mi Calm Calm - N/A   Scattered Clouds
4:53 PM 93.0 °F 95.0 °F 64.9 °F 39% 29.96 in 10.0 mi Variable 3.5 mph - N/A   Partly Cloudy
5:53 PM 91.9 °F 94.1 °F 64.9 °F 41% 29.96 in 10.0 mi ENE 6.9 mph - N/A   Partly Cloudy
6:53 PM 90.0 °F 91.3 °F 64.0 °F 42% 29.96 in 10.0 mi NE 10.4 mph 17.3 mph N/A   Partly Cloudy
7:53 PM 88.0 °F 89.6 °F 64.9 °F 46% 29.98 in 10.0 mi NE 4.6 mph - N/A   Clear
8:53 PM 86.0 °F 88.2 °F 66.0 °F 51% 29.99 in 10.0 mi ENE 4.6 mph - N/A   Partly Cloudy
9:53 PM 84.0 °F 87.8 °F 69.1 °F 61% 30.02 in 10.0 mi ENE 6.9 mph - N/A   Partly Cloudy
10:53 PM 82.0 °F 85.9 °F 70.0 °F 67% 30.04 in 10.0 mi ENE 8.1 mph - N/A   Partly Cloudy
11:53 PM 80.1 °F 83.6 °F 71.1 °F 74% 30.04 in 10.0 mi ENE 9.2 mph - N/A   Partly Cloudy